Location: *
(49.4547°N, 7.9131°E)
Time: 23:59:18
(UTC+00:00)

Cosmos 1190 Rocket - Pass Details

Date: 22 September 2019
Orbit: 757 x 780 km, 74.1° (Epoch: 15 October)

Event Time Altitude Azimuth Distance (km) Brightness Sun altitude
Rises 18:33:15 0° 335° (NNW) 3,271 7.9 -11.5°
Reaches altitude 10° 18:35:39 10° 335° (NNW) 2,337 7.1 -11.8°
Maximum altitude 18:40:58 84° 249° (WSW) 784 4.1 -12.7°
Drops below altitude 10° 18:46:13 10° 161° (SSE) 2,305 6.1 -13.5°
Enters shadow 18:47:50 - 161° (SSE) 2,935 6.7 -13.7°
